• MPC Preparation (Info)

  • MPEC 2014-S113: 2014 SV261

    The following Minor Planet Electronic Circular may be linked-to from your own Web pages, but must not otherwise be redistributed electronically.

    A form allowing access to any MPEC is at the bottom of this page.


    Read MPEC 2014-S112 Read MPEC 2014-S114


    M.P.E.C. 2014-S113                               Issued 2014 Sept. 27, 19:58 UT
    
         The Minor Planet Electronic Circulars contain information on unusual
             minor planets and routine data on comets.  They are published
       on behalf of Commission 20 of the International Astronomical Union by the
              Minor Planet Center, Smithsonian Astrophysical Observatory,
                              Cambridge, MA 02138, U.S.A.
    
                 Prepared using the Tamkin Foundation Computer Network
    
                                  MPC@CFA.HARVARD.EDU
                URL https://www.minorplanetcenter.net/    ISSN 1523-6714
    
                                      2014 SV261
    
    Observations:
         K14SQ1V* C2014 09 26.26896 23 39 36.17 +20 39 50.6          19.6 VqES113703
         K14SQ1V  C2014 09 26.27650 23 39 37.52 +20 37 37.4          19.4 VqES113703
         K14SQ1V  C2014 09 26.28404 23 39 38.84 +20 35 23.5          19.3 VqES113703
         K14SQ1V  C2014 09 26.29157 23 39 40.27 +20 33 10.2          19.1 VqES113703
         K14SQ1V  C2014 09 26.33788 23 39 48.60 +20 19 25.5          19.0 VqES113703
         K14SQ1V  C2014 09 26.34759 23 39 50.34 +20 16 31.3          19.0 VqES113703
         K14SQ1V  C2014 09 26.35729 23 39 52.08 +20 13 38.9          19.0 VqES113703
         K14SQ1V  C2014 09 26.36702 23 39 53.95 +20 10 45.6          19.3 VqES113703
         K14SQ1V KC2014 09 26.36766023 39 52.83 +20 10 16.6          19.7 VuES113H21
         K14SQ1V KC2014 09 26.37005123 39 53.28 +20 09 33.5          20.0 VuES113H21
         K14SQ1V KC2014 09 26.37254923 39 53.78 +20 08 48.7          19.5 VuES113H21
         K14SQ1V KC2014 09 26.79338 23 41 30.50 +18 03 17.6          18.8 RqES113160
         K14SQ1V KC2014 09 26.79493 23 41 30.85 +18 02 49.4          18.8 RqES113160
         K14SQ1V KC2014 09 26.79649 23 41 31.13 +18 02 20.7          19.2 RqES113160
         K14SQ1V KC2014 09 26.80267 23 41 32.33 +18 00 31.6          18.8 RqES113160
         K14SQ1V KC2014 09 26.80421 23 41 32.63 +18 00 03.2          18.8 RqES113160
         K14SQ1V KC2014 09 26.83997 23 41 40.09 +17 49 20.7          19.7 VqES113958
         K14SQ1V KC2014 09 26.84476 23 41 41.00 +17 47 54.8          19.7 VqES113958
         K14SQ1V KC2014 09 26.85109 23 41 42.20 +17 46 00.9          19.7 VqES113958
         K14SQ1V KC2014 09 26.86698 23 41 44.11 +17 41 16.3          19.0 VqES113595
         K14SQ1V KC2014 09 26.87195 23 41 45.02 +17 39 47.7          19.1 VqES113595
         K14SQ1V KC2014 09 26.98931123 42 06.75 +17 04 35.7          19.1  qES113B04
         K14SQ1V KC2014 09 26.99077623 42 07.01 +17 04 09.1          19.0  qES113B04
         K14SQ1V KC2014 09 26.99233223 42 07.27 +17 03 41.2          19.0  qES113B04
         K14SQ1V KC2014 09 27.10615423 42 35.24 +16 29 32.7          19.4 VuES113H21
         K14SQ1V KC2014 09 27.11142523 42 36.20 +16 27 57.9          19.6 VuES113H21
         K14SQ1V KC2014 09 27.11678623 42 37.18 +16 26 21.6          19.6 VuES113H21
         K14SQ1V KC2014 09 27.11923 23 42 37.68 +16 25 44.6          19.4 RqES113850
         K14SQ1V KC2014 09 27.12310 23 42 38.36 +16 24 34.1          19.4 RqES113850
         K14SQ1V KC2014 09 27.12531 23 42 38.75 +16 23 53.7          19.5 RqES113850
         K14SQ1V  C2014 09 27.23544 23 43 00.34 +15 50 51.3          19.0 VqES113G96
         K14SQ1V  C2014 09 27.24138 23 43 01.37 +15 49 03.8          19.1 VqES113G96
         K14SQ1V  C2014 09 27.24731 23 43 02.40 +15 47 16.5          19.4 VqES113G96
         K14SQ1V  C2014 09 27.25327 23 43 03.44 +15 45 29.2          19.1 VqES113G96
         K14SQ1V KC2014 09 27.25353 23 43 01.26 +15 45 20.0          19.3 RqES113850
         K14SQ1V KC2014 09 27.26251 23 43 02.71 +15 42 36.3          18.7 RqES113850
         K14SQ1V KC2014 09 27.27124 23 43 04.37 +15 39 59.0          19.0 RqES113850
         K14SQ1V KC2014 09 27.31905 23 43 12.84 +15 25 30.8          19.3 RqES113850
         K14SQ1V KC2014 09 27.32601 23 43 14.14 +15 23 24.2          19.0 RqES113850
         K14SQ1V KC2014 09 27.33208 23 43 15.24 +15 21 33.7          19.2 RqES113850
         K14SQ1V KC2014 09 27.78619 23 44 54.55 +13 04 09.0          19.5 VtES113L04
         K14SQ1V KC2014 09 27.79539 23 44 56.22 +13 01 22.8          19.6 VtES113L04
         K14SQ1V KC2014 09 27.80201 23 44 57.43 +12 59 22.5          19.4 VtES113L04
    
    Observer details:
    160 Castelmartini.  Observers M. Jaeger, E. Prosperi, S. Prosperi, W. Vollmann.
        Measurer E. Prosperi.  0.35-m f/10 Schmidt-Cassegrain + CCD.
    595 Farra d'Isonzo.  Observers A. Bresan, E. Pettarin.  Measurer E. Pettarin.
        0.40-m f/4.5 reflector + CCD.
    703 Catalina Sky Survey.  Observer R. A. Kowalski.  Measurers
        E. J. Christensen, A. R. Gibbs, A. D. Grauer, R. E. Hill, J. A. Johnson,
        R. A. Kowalski, S. M. Larson, F. C. Shelly.  0.68-m Schmidt + CCD.
    850 Cordell-Lorenz Observatory, Sewanee.  Observers D. T. Durig, M. C. Nicolas,
        M. C. Nicholas.  Measurer D. T. Durig.  0.3-m f/2.5 Schmidt-Cassegrain
        + CCD.
    958 Observatoire de Dax.  Observers P. Dupouy, J. B. de Vanssay.  Measurer
        P. Dupouy.  0.43-m f/2.7 reflector + CCD.
    B04 OAVdA, Saint-Barthelemy.  Observers A. Carbognani, L. Buzzi, P. Bacci.
        0.81-m f/7.9 reflector + CCD.
    G96 Mt. Lemmon Survey.  Observer A. D. Grauer.  Measurers E. J. Christensen,
        A. R. Gibbs, A. D. Grauer, R. E. Hill, J. A. Johnson, R. A. Kowalski,
        S. M. Larson, F. C. Shelly.  1.5-m reflector + CCD.
    H21 Astronomical Research Observatory, Westfield.  Observers R. Holmes,
        T. Linder.  Measurers L. Buzzi, S. Foglia, T. Vorobjov, T. Linder,
        R. Holmes.  0.61-m f/4.5 astrograph + CCD, 0.76-m f/3.0 astrograph + CCD.
    L04 ROASTERR-1 Observatory, Cluj-Napoca.  Observer L. Hudin.  0.3-m f/5.0
        reflector + CCD.
    
    Orbital elements:
    2014 SV261                                               Earth MOID = 0.0967 AU
    Epoch 2014 Dec. 9.0 TT = JDT 2457000.5                  MPC
    M 100.31096              (2000.0)            P               Q
    n   0.77071718     Peri.  123.40186     +0.62810585     +0.77635167
    a   1.1781647      Node   186.33234     -0.77182083     +0.63017313
    e   0.1070877      Incl.   28.45155     +0.09887190     -0.01264547
    P   1.28           H   23.3           G   0.15           U   7
    Residuals in seconds of arc
    140926 703  0.3-  1.0-    140926 160  0.1+  0.1+    140927 G96  0.1-  0.4+
    140926 703  0.4-  0.3-    140926 958  0.3+  0.1-    140927 G96  0.2-  0.1+
    140926 703  0.8-  0.3-    140926 958  0.3+  0.4-    140927 G96  0.2-  0.2-
    140926 703  0.3+  0.2+    140926 958  0.3+  1.0-    140927 G96  0.1-  0.2+
    140926 703  0.3+  0.3+    140926 595  0.3+  0.8-    140927 850  0.4+  0.3+
    140926 703  0.0   0.6-    140926 595  0.2+  0.2-    140927 850  1.4-  0.7-
    140926 703  0.4-  0.3+    140926 B04  0.0   0.2+    140927 850  0.4+  0.3+
    140926 703  0.9+  1.0+    140926 B04  0.1-  0.0     140927 850  0.4-  0.1+
    140926 H21  0.3+  0.4+    140926 B04  0.4-  0.2+    140927 850  0.1+  0.0
    140926 H21  0.1+  0.1+    140927 H21  0.0   0.1+    140927 850  0.1+  0.1-
    140926 H21  0.2+  0.1+    140927 H21  0.1-  0.0     140927 L04  0.2+  0.2+
    140926 160  0.7-  1.0+    140927 H21  0.1-  0.1+    140927 L04  0.1+  0.3+
    140926 160  0.0   0.5+    140927 850  0.6+  0.5+    140927 L04  0.2+  0.3-
    140926 160  0.2-  0.4-    140927 850  0.3+  0.4-
    140926 160  0.0   1.0+    140927 850  0.2+  1.0-
    
    Ephemeris:
    2014 SV261               a,e,i = 1.18, 0.11, 28                  q = 1.0520
    Date    TT    R. A. (2000) Decl.     Delta      r     Elong.  Phase     V
    2014 08 28    21 11 05.6 +75 45 11   0.2703  1.0623    93.6    71.6    23.1
    ...
    2014 09 12    22 35 45.5 +64 30 58   0.1657  1.0762   110.6    61.1    21.7
    ...
    2014 09 20    23 14 46.3 +46 45 40   0.1173  1.0856   131.4    44.0    20.5
    ...
    2014 09 26    23 38 37.9 +21 59 38   0.09730 1.0934   157.7    20.3    19.4
    2014 09 27    23 42 09.9 +17 02 21   0.09633 1.0948   162.6    15.9    19.3
    2014 09 28    23 45 34.6 +12 00 41   0.09616 1.0962   167.2    11.7    19.1
    ...
    2014 10 04    00 03 44.5 -15 15 04   0.1111  1.1048   158.8    19.1    19.7
    ...
    2014 10 12    00 22 47.9 -36 14 10   0.1592  1.1169   135.3    39.0    21.1
    ...
    2014 10 27    00 48 21.1 -49 25 14   0.2760  1.1414   115.8    51.7    22.7
    
    A. U. Tomatic                (C) Copyright 2014 MPC           M.P.E.C. 2014-S113
    

    Read MPEC 2014-S112 Read MPEC 2014-S114


    MPEC number:

    Enter an MPEC number in one of the following forms:

    • 1997-B01 (the full form)
    • J97B01 (the packed version of the full form)
    • B01 (the abbreviated form)